Probability
0 0 0 0 0 0 0 0 0 0 0 0 0 0 0 3 3 3 3 3 3 0 0 3 3 3 3 3 6 6 10 6 10 13 10 3 0 0 0 6 6 10 10 19
0 0 0 0 0 0 0 0 0 0 0 0 0 0 0 3 3 3 3 0 3 3 3 6 6 6 6 6 6 10 10 6 6 10 0 0 0 0 0 10 10 13 10 13
0 0 0 0 0 0 0 0 0 0 0 0 0 0 0 0 3 3 3 0 0 3 3 6 6 6 6 10 13 13 10 6 6 3 0 0 0 0 10 3 10 10 13 23
0 0 0 0 0 0 0 0 0 0 0 0 0 0 0 0 3 3 3 0 0 0 3 6 6 6 6 10 13 10 6 6 6 3 3 3 3 10 6 6 10 6 10 19
0 0 0 0 0 0 0 0 0 0 0 0 0 0 0 3 3 3 3 0 0 0 0 3 6 10 10 6 6 10 10 10 6 3 6 3 10 6 3 6 10 10 10 10
0 0 0 0 0 0 0 0 0 0 0 0 0 0 0 0 0 3 3 3 3 3 0 3 10 10 10 13 13 10 10 6 6 6 10 10 10 6 3 6 10 13 10 10
0 0 0 0 0 0 0 0 0 0 0 0 0 0 0 0 0 3 6 6 3 3 6 10 13 13 13 13 10 10 13 10 10 13 16 10 10 13 13 10 10 13 10 13
0 0 0 0 0 0 0 0 0 0 0 0 0 0 0 0 0 3 3 6 13 6 10 10 10 10 10 10 3 6 6 10 13 19 16 10 13 13 13 13 13 13 13 13
0 0 0 0 0 0 0 0 0 0 0 0 0 0 0 0 6 3 6 10 13 10 10 6 6 3 3 3 6 6 6 10 10 10 13 13 10 10 10 10 10 13 13 13
0 0 0 0 0 0 0 0 0 0 0 0 0 0 0 3 6 10 10 6 6 6 6 6 3 3 0 3 6 6 6 10 10 6 6 13 10 10 10 6 10 13 10 10
0 0 0 0 0 0 0 0 0 0 0 0 0 0 0 0 6 6 6 3 3 6 13 13 13 10 0 0 3 3 6 10 10 10 6 6 10 10 10 6 10 13 6 6
0 0 0 0 0 0 0 0 0 0 0 0 0 0 0 0 3 6 6 6 10 6 13 13 10 6 6 0 0 6 10 10 13 10 10 10 10 10 13 13 6 6 10 6
0 0 0 0 0 0 0 0 0 0 0 0 0 0 3 3 3 6 10 6 3 6 10 10 10 6 6 3 6 6 10 10 6 10 10 10 10 10 10 13 3 3 3 3
0 0 0 0 0 0 0 0 0 0 0 0 0 0 3 3 0 3 6 3 3 10 16 10 3 3 3 3 6 6 10 10 6 6 6 10 10 10 10 13 6 6 6 6
0 0 0 0 0 0 0 0 0 0 0 0 0 3 3 3 6 3 3 6 6 13 13 10 6 10 6 6 6 6 10 10 13 10 10 10 13 10 10 6 6 3 3 13
0 0 0 0 0 0 0 0 3 0 0 0 3 3 3 3 3 3 3 10 16 16 10 6 0 3 10 10 3 6 6 13 13 16 16 16 16 6 6 3 3 3 6 3
0 0 0 0 0 0 0 0 0 3 3 6 3 3 3 3 3 3 3 10 10 10 13 3 3 3 6 10 6 6 6 6 13 13 16 13 16 13 10 13 3 3 3 3
0 0 0 0 0 0 0 0 0 3 3 3 3 3 0 0 0 3 3 6 6 10 13 10 10 3 3 6 10 6 6 6 13 13 13 13 10 13 10 6 0 0 0 0
0 0 0 0 0 0 0 0 0 3 3 3 3 0 3 3 10 6 3 6 3 3 10 10 10 10 16 10 10 13 13 13 13 16 16 13 10 10 6 3 0 3 0 0
0 0 0 0 0 0 0 0 0 0 0 0 0 6 10 6 10 6 3 0 3 3 6 3 3 10 10 10 16 13 16 16 16 19 13 19 16 13 13 10 3 0 3 3
0 0 0 0 0 0 0 0 0 0 0 0 6 6 6 6 6 3 3 0 0 0 3 6 10 10 10 13 13 19 13 16 16 19 19 16 16 6 6 6 3 3 3 0
0 0 0 0 0 0 0 0 0 0 0 3 3 3 3 0 3 3 0 0 0 0 0 6 10 10 13 13 13 10 10 13 13 13 13 13 10 10 10 6 3 0 0 0
0 0 0 0 0 0 0 0 0 0 0 0 3 0 0 0 3 0 0 0 0 0 6 3 3 6 6 10 6 6 10 10 10 6 6 6 6 10 10 6 6 0 0 0
0 0 0 0 0 0 0 0 0 0 0 0 0 0 0 3 3 0 0 0 0 0 3 6 6 6 10 10 6 10 10 6 6 6 6 6 6 10 10 6 6 0 0 0
3 0 0 0 0 0 0 0 0 3 6 3 3 3 3 3 3 3 0 0 0 3 3 3 6 6 6 6 6 10 10 3 3 6 6 6 10 10 10 10 6 0 0 0
0 0 0 0 0 0 0 0 3 3 3 3 3 6 6 3 3 0 0 3 3 3 3 3 3 3 3 3 6 10 3 3 3 6 6 6 10 10 10 6 6 3 0 0
Height
5906 5908 5908 5909 5909 5910 5910 5910 5911 5911 5910 5909 5909 5908 5908 5907 5906 5906 5905 5904 5902 5901 5900 5899 5897 5896 5894 5893 5892 5891 5889 5888 5886 5885 5884 5884 5883 5882 5881 5881 5880 5880 5879 5879
5905 5906 5907 5907 5907 5908 5909 5909 5910 5910 5909 5908 5907 5908 5908 5907 5906 5905 5904 5903 5902 5901 5899 5898 5897 5896 5894 5893 5892 5891 5890 5888 5887 5886 5885 5884 5883 5882 5882 5881 5880 5879 5878 5878
5902 5904 5904 5905 5906 5907 5907 5908 5908 5908 5907 5907 5906 5907 5907 5906 5905 5904 5903 5902 5901 5900 5899 5898 5897 5895 5894 5893 5892 5891 5890 5889 5887 5886 5885 5884 5883 5882 5881 5881 5880 5879 5878 5877
5899 5901 5902 5903 5904 5905 5905 5906 5906 5906 5906 5905 5906 5905 5905 5904 5904 5903 5902 5901 5900 5899 5898 5897 5895 5894 5893 5892 5891 5890 5889 5888 5887 5886 5884 5883 5882 5881 5881 5879 5879 5878 5877 5876
5896 5898 5899 5901 5902 5902 5903 5903 5903 5903 5903 5904 5903 5903 5904 5903 5902 5902 5901 5900 5899 5898 5897 5895 5894 5893 5892 5891 5890 5889 5888 5887 5886 5885 5883 5882 5881 5880 5879 5878 5877 5876 5875 5874
5893 5894 5896 5898 5899 5899 5900 5900 5900 5901 5901 5901 5902 5901 5901 5901 5900 5900 5899 5898 5897 5896 5895 5894 5893 5892 5891 5890 5889 5888 5887 5886 5885 5883 5882 5881 5880 5879 5877 5876 5875 5874 5873 5872
5889 5891 5892 5894 5895 5896 5896 5897 5897 5897 5898 5899 5899 5898 5899 5898 5898 5897 5897 5896 5895 5894 5893 5892 5891 5890 5889 5889 5888 5887 5886 5885 5884 5882 5881 5879 5878 5876 5875 5874 5873 5871 5870 5869
5885 5887 5889 5890 5892 5893 5893 5894 5895 5895 5894 5895 5895 5895 5896 5895 5895 5894 5893 5893 5892 5891 5890 5890 5889 5888 5887 5887 5886 5885 5884 5883 5882 5880 5879 5877 5876 5874 5873 5871 5870 5869 5867 5866
5880 5884 5885 5886 5887 5889 5889 5889 5891 5891 5890 5890 5891 5892 5892 5892 5892 5891 5890 5890 5889 5889 5888 5887 5886 5885 5885 5884 5884 5883 5881 5880 5879 5878 5876 5875 5874 5872 5870 5869 5867 5866 5864 5863
5875 5878 5881 5882 5883 5884 5885 5886 5886 5886 5886 5886 5887 5888 5889 5889 5888 5888 5887 5887 5886 5885 5885 5884 5883 5883 5882 5881 5880 5880 5879 5878 5876 5875 5874 5872 5870 5869 5867 5866 5864 5863 5861 5860
5870 5873 5875 5877 5878 5879 5881 5881 5881 5882 5882 5882 5882 5886 5885 5885 5884 5884 5883 5883 5882 5882 5881 5880 5880 5879 5879 5878 5877 5876 5875 5874 5873 5871 5870 5869 5867 5866 5864 5863 5861 5859 5858 5857
5864 5867 5869 5871 5873 5874 5875 5876 5877 5877 5877 5877 5877 5882 5880 5880 5880 5879 5879 5879 5878 5878 5877 5877 5876 5875 5875 5874 5873 5873 5872 5871 5869 5868 5866 5864 5863 5862 5860 5858 5857 5855 5854 5853
5858 5861 5863 5865 5868 5869 5869 5870 5871 5871 5872 5871 5872 5876 5875 5875 5875 5875 5875 5874 5874 5874 5873 5872 5871 5870 5870 5870 5869 5868 5868 5867 5865 5864 5862 5861 5859 5858 5856 5855 5853 5852 5850 5849
5852 5854 5857 5860 5861 5862 5863 5864 5865 5865 5865 5866 5867 5868 5869 5870 5870 5870 5869 5869 5868 5868 5868 5867 5866 5865 5865 5865 5864 5864 5863 5862 5861 5859 5858 5856 5855 5853 5852 5851 5849 5848 5846 5845
5845 5848 5850 5852 5854 5855 5856 5858 5858 5859 5859 5860 5861 5862 5863 5864 5863 5864 5863 5863 5863 5862 5862 5861 5860 5860 5860 5860 5859 5859 5858 5857 5856 5855 5853 5852 5850 5849 5848 5847 5845 5844 5842 5841
5838 5841 5843 5845 5847 5848 5849 5851 5851 5852 5853 5854 5855 5856 5857 5857 5857 5857 5857 5857 5856 5856 5855 5855 5855 5854 5854 5854 5854 5853 5852 5851 5850 5849 5848 5847 5845 5844 5843 5842 5841 5839 5838 5836
5831 5833 5835 5838 5839 5840 5842 5844 5845 5846 5846 5847 5848 5850 5850 5850 5850 5851 5851 5851 5850 5850 5849 5849 5849 5848 5849 5849 5848 5847 5846 5846 5845 5844 5843 5842 5841 5840 5839 5837 5835 5834 5833 5831
5823 5825 5827 5829 5832 5832 5837 5837 5838 5839 5840 5840 5841 5842 5842 5843 5843 5843 5844 5844 5843 5843 5843 5843 5843 5842 5842 5842 5841 5841 5840 5840 5839 5839 5838 5837 5836 5835 5834 5832 5831 5829 5828 5826
5815 5817 5819 5821 5822 5824 5828 5830 5831 5832 5833 5833 5834 5835 5835 5835 5836 5836 5836 5836 5836 5837 5836 5836 5836 5836 5835 5835 5835 5835 5834 5834 5833 5833 5832 5831 5830 5829 5828 5827 5825 5824 5822 5821
5806 5809 5811 5812 5814 5816 5821 5822 5823 5825 5825 5826 5826 5827 5827 5828 5829 5830 5829 5829 5829 5829 5830 5830 5829 5829 5829 5828 5828 5828 5828 5827 5827 5826 5826 5825 5824 5823 5822 5820 5819 5817 5816 5815
5798 5800 5802 5804 5805 5808 5812 5814 5815 5818 5819 5819 5819 5819 5820 5820 5821 5822 5822 5822 5822 5822 5822 5823 5823 5822 5822 5822 5821 5821 5821 5821 5820 5820 5819 5819 5818 5816 5815 5814 5812 5811 5810 5808
5788 5791 5793 5795 5797 5802 5803 5805 5807 5808 5810 5811 5812 5812 5813 5814 5814 5814 5814 5815 5815 5815 5816 5816 5816 5816 5815 5815 5815 5815 5815 5815 5814 5814 5813 5812 5811 5810 5809 5807 5806 5804 5803 5801
5779 5782 5784 5787 5791 5793 5795 5796 5798 5799 5801 5803 5804 5805 5806 5806 5806 5807 5807 5808 5808 5808 5809 5809 5809 5808 5808 5808 5808 5808 5808 5808 5808 5807 5806 5805 5804 5803 5802 5800 5799 5798 5796 5794
5770 5773 5775 5778 5781 5783 5786 5788 5789 5791 5793 5794 5796 5797 5798 5799 5799 5800 5800 5800 5800 5801 5801 5801 5801 5801 5801 5801 5801 5801 5801 5801 5801 5800 5799 5798 5797 5796 5795 5794 5792 5791 5789 5788
5762 5764 5766 5769 5772 5774 5777 5779 5781 5782 5784 5786 5787 5789 5790 5790 5791 5792 5792 5793 5793 5793 5793 5793 5793 5794 5794 5794 5794 5794 5793 5793 5793 5793 5792 5791 5790 5789 5788 5786 5785 5783 5782 5780
5754 5756 5758 5761 5764 5766 5769 5770 5772 5773 5775 5777 5779 5780 5781 5782 5783 5784 5784 5784 5785 5785 5786 5786 5786 5786 5786 5786 5786 5786 5785 5785 5785 5785 5784 5784 5783 5781 5780 5779 5778 5776 5774 5772
Wind_Speed
11 11 11 9 8 7 5 5 5 4 6 6 5 5 5 5 5 6 6 7 7 8 9 9 9 9 9 9 9 9 9 9 8 7 7 7 6 6 5 4 5 5 4 4
13 12 12 12 10 9 7 7 6 6 7 8 7 7 6 5 6 6 5 5 6 7 8 8 9 8 8 8 8 9 9 9 8 8 7 6 6 6 6 5 5 6 5 5
15 13 14 14 12 11 9 8 7 8 9 9 9 9 7 6 7 7 5 6 7 7 8 9 8 8 7 7 7 7 8 8 8 9 8 7 8 8 7 6 6 6 6 6
17 16 16 15 13 13 11 10 10 11 12 11 11 10 9 8 8 7 7 8 8 8 8 8 8 7 7 6 6 6 7 7 8 9 9 8 8 8 8 8 8 8 7 7
19 18 17 15 14 14 13 13 13 13 13 13 12 12 11 10 9 8 8 9 9 9 9 8 8 8 8 7 7 7 7 7 8 9 8 8 9 9 10 10 10 10 9 9
20 20 19 17 17 16 15 16 15 15 15 14 13 13 13 11 10 10 10 10 10 9 9 9 9 9 9 9 8 8 8 8 8 9 9 9 9 10 10 11 11 11 10 10
20 20 20 19 18 17 17 17 17 17 16 15 14 14 13 13 12 11 10 11 11 10 10 10 10 10 10 9 8 8 8 9 9 10 9 10 10 10 11 11 12 12 12 12
21 21 20 19 18 18 18 18 18 18 18 17 16 16 14 13 13 12 12 11 11 11 11 11 11 10 10 10 10 9 10 10 11 11 10 10 10 11 12 12 13 12 12 12
22 21 20 20 19 19 19 19 19 20 19 19 19 17 15 14 14 13 13 12 11 11 11 11 11 11 11 11 11 11 11 11 12 12 12 12 12 12 12 13 13 12 12 12
24 23 22 22 21 21 21 21 21 21 22 22 20 18 16 16 15 14 14 13 13 12 13 12 11 12 12 11 11 12 12 12 13 13 13 14 13 13 14 14 15 14 13 13
25 24 23 23 23 23 22 22 23 23 23 23 23 20 17 17 16 16 15 14 14 14 14 13 13 13 13 13 13 14 14 14 14 14 15 14 14 15 15 15 15 15 14 14
25 26 26 25 25 24 24 24 24 24 25 25 24 21 19 19 18 17 16 16 15 15 15 15 16 15 15 14 14 15 15 15 15 15 15 16 16 16 16 16 16 16 15 16
27 27 27 27 26 26 26 25 26 26 26 26 26 24 22 21 20 19 17 17 17 17 17 17 18 18 17 16 15 16 16 16 16 16 17 18 18 17 17 16 16 16 16 16
29 29 28 28 27 27 27 27 27 27 28 27 27 25 23 22 21 21 20 19 19 19 19 20 20 19 18 17 16 16 17 17 17 18 18 18 18 17 17 17 17 17 17 17
31 31 30 29 28 28 28 28 28 28 28 28 27 26 25 23 22 22 22 22 22 22 22 21 20 20 19 18 18 18 18 18 18 19 19 19 20 18 18 18 19 19 18 18
33 33 32 32 31 31 30 29 28 29 29 29 28 26 26 26 24 23 23 23 23 24 23 21 21 20 20 20 19 20 19 19 20 20 20 20 21 20 20 19 20 19 18 19
35 34 33 33 32 32 32 30 29 29 28 28 28 27 27 28 26 25 24 24 23 24 24 23 22 21 21 21 19 20 20 20 20 20 20 21 20 20 20 20 20 19 20 20
35 35 34 34 33 33 31 29 29 29 29 28 28 27 27 27 27 26 25 24 23 23 23 23 23 23 23 22 20 21 20 20 20 20 21 21 21 21 21 21 21 21 21 21
35 35 35 35 35 34 32 30 30 29 29 28 28 28 28 28 28 27 27 27 26 25 24 24 24 24 22 22 21 21 20 21 21 22 21 21 21 22 22 22 22 22 23 23
35 36 35 35 35 35 32 31 31 30 30 29 29 28 28 29 28 27 28 28 27 26 24 24 24 24 23 21 21 21 21 20 21 22 21 21 21 22 23 24 24 24 24 23
36 36 36 35 35 35 33 32 32 32 31 30 29 28 28 28 28 27 27 27 27 27 27 26 25 24 24 23 22 22 22 22 22 23 23 22 22 23 24 25 25 25 24 24
35 36 36 36 36 35 34 33 32 32 30 30 29 28 28 28 28 27 26 27 26 26 27 26 25 25 24 23 22 22 23 23 23 23 23 22 23 24 25 25 25 25 25 25
35 35 35 36 36 34 33 33 32 31 30 29 28 28 28 28 28 28 27 27 27 27 27 26 26 25 24 24 23 24 24 25 24 24 23 23 23 24 25 25 25 26 25 25
33 33 34 34 34 34 33 33 32 31 30 29 28 28 28 28 28 28 27 28 28 28 27 27 26 25 25 24 25 25 25 25 25 24 24 24 24 25 25 25 25 26 26 26
30 31 31 32 32 32 32 32 31 31 31 30 30 29 29 29 29 29 29 28 28 28 28 27 27 26 26 26 27 26 26 26 26 26 25 25 25 26 26 26 26 27 27 28
27 29 30 30 30 31 30 31 30 31 31 30 30 30 30 30 29 30 30 29 30 29 28 27 27 26 26 27 26 26 26 26 26 26 26 26 26 26 27 27 27 27 28 27
Wind_Direction
232 232 235 236 235 232 238 256 263 264 274 281 295 311 326 345 358 6 7 3 1 3 2 7 11 11 11 13 14 17 15 13 13 13 9 6 1 355 351 351 354 348 331 320
235 234 233 234 238 239 244 260 267 258 265 276 285 290 301 319 333 338 346 347 350 351 348 353 358 359 3 5 7 11 10 11 11 8 6 4 357 352 349 345 341 340 326 315
235 233 233 237 242 243 243 252 258 259 261 271 283 288 296 305 316 316 322 330 340 343 340 337 341 348 351 354 358 2 0 360 3 2 358 354 353 348 341 332 329 324 322 316
234 234 237 241 244 243 241 249 256 262 266 272 280 286 291 299 306 307 310 315 323 332 329 323 326 331 337 340 338 346 351 349 349 350 348 345 342 340 335 324 320 313 308 307
233 235 239 241 244 245 244 250 258 264 270 274 279 283 289 292 296 300 303 308 312 317 318 312 309 313 317 322 324 324 328 337 340 338 335 332 332 330 328 322 317 311 305 302
235 236 238 243 246 248 249 254 259 265 271 275 283 287 287 288 291 296 296 299 302 305 305 304 299 304 305 307 310 315 316 323 327 328 328 323 321 320 320 319 314 312 305 297
235 237 240 244 245 247 253 257 261 267 273 279 281 284 288 286 288 294 294 293 296 297 298 301 299 298 295 297 301 304 307 313 317 320 323 319 315 315 317 317 313 307 301 295
234 235 239 242 245 251 256 259 263 271 277 279 277 280 286 284 285 291 296 296 294 296 302 300 291 288 288 290 294 299 303 309 312 315 318 320 319 321 321 318 315 307 299 294
234 234 235 239 242 248 253 258 263 268 273 275 276 278 279 282 286 290 293 295 297 295 298 295 285 286 286 286 290 295 300 304 306 307 312 316 314 314 316 314 314 309 300 295
235 234 233 235 240 246 252 257 262 267 272 275 276 277 278 280 285 287 288 291 293 292 295 298 288 287 284 281 285 289 292 296 299 305 309 308 309 309 309 304 305 302 298 297
238 237 235 237 241 246 251 255 260 266 270 274 277 278 281 281 283 285 285 286 286 287 290 294 293 285 284 283 288 291 292 293 297 302 306 308 308 308 306 302 304 299 294 293
241 240 238 240 244 246 250 254 259 263 268 272 275 277 279 282 282 283 284 283 283 282 286 290 289 288 284 284 287 288 290 292 295 299 302 303 302 303 304 303 305 303 299 295
243 243 242 242 244 248 251 254 258 262 267 270 272 276 278 280 278 278 279 281 280 280 283 286 285 282 281 282 284 286 286 290 292 295 298 300 299 300 302 302 305 303 300 299
245 245 245 246 248 250 253 256 260 262 265 268 271 275 277 277 277 275 275 277 278 279 281 281 280 276 276 278 279 284 285 286 289 293 296 296 295 295 297 297 300 299 299 299
245 247 247 248 249 251 253 257 261 263 264 266 269 272 276 276 274 274 275 275 277 280 278 277 275 273 273 275 279 283 286 286 287 291 295 296 295 293 293 293 295 294 294 295
247 248 249 250 252 253 254 257 259 261 264 265 267 270 272 274 272 270 272 275 276 281 278 274 274 272 272 275 279 282 285 285 285 288 292 294 294 291 291 292 293 292 293 295
248 250 251 251 253 255 255 256 257 260 263 265 266 269 271 273 272 270 271 273 277 278 276 275 276 275 275 274 277 282 282 281 282 286 290 293 294 293 292 289 291 292 294 296
248 251 253 254 253 254 256 257 259 261 262 265 265 266 269 271 271 270 270 272 274 274 275 277 276 276 276 277 276 279 281 279 280 285 288 291 292 290 290 289 289 290 291 293
248 250 251 253 254 256 256 259 261 262 263 265 265 264 265 267 268 267 269 272 274 274 274 277 278 277 276 277 275 276 278 278 280 283 286 288 289 287 286 285 285 287 288 289
247 249 251 252 255 256 257 259 261 263 264 265 266 266 265 266 267 267 268 269 271 273 275 277 278 276 276 277 277 278 279 281 280 280 284 287 288 287 285 285 286 288 289 289
247 248 250 253 255 256 257 259 260 262 263 264 264 265 267 267 268 268 268 268 269 270 273 276 277 275 275 277 276 277 279 282 283 283 284 284 286 288 288 289 288 288 289 292
248 249 251 252 254 256 257 259 261 262 262 263 263 264 266 267 268 269 271 271 268 268 271 274 274 273 273 274 275 277 278 279 280 281 282 284 285 287 290 291 290 290 290 292
248 249 251 252 254 255 256 257 259 261 261 261 263 263 264 265 266 269 270 271 268 269 268 268 270 269 272 274 276 278 277 278 279 279 280 283 285 288 289 288 290 290 291 292
248 249 251 252 252 252 253 255 257 260 261 261 261 261 261 261 263 265 268 269 270 268 267 267 269 272 274 276 277 276 275 276 279 278 280 282 285 288 290 289 291 291 292 292
247 247 249 251 251 251 253 255 258 259 260 259 259 261 261 261 263 264 266 268 268 268 266 268 271 273 275 276 276 274 276 277 278 279 279 281 283 285 288 290 293 292 291 291
246 249 251 251 251 252 254 256 258 257 258 258 259 261 262 262 263 265 266 266 265 266 267 268 269 270 272 272 274 276 276 277 278 279 279 280 282 284 287 289 291 293 293 292